AirNav   Air Wisconsin pilot careers
 
 1532 users online  

4FL0 Turkey Scratch Plantation Airport
Lamont, Florida, USA


FAA INFORMATION EFFECTIVE 07 DECEMBER 2017

Location

FAA Identifier: 4FL0
Lat/Long: 30-24-13.0000N / 083-48-36.0000W
30-24.216667N / 083-48.600000W
30.4036111 / -83.8100000
(estimated)
Elevation: 115 ft. / 35 m (estimated)
Variation: 03W (1995)
From city: 2 miles S of LAMONT, FL
Time zone: UTC -5 (UTC -4 during Daylight Saving Time)
Zip code: 32344

Airport Operations

Airport use: Private use. Permission required prior to landing
Activation date: 03/1999
Control tower: no
ARTCC: JACKSONVILLE CENTER
FSS: GAINESVILLE FLIGHT SERVICE STATION
Attendance: UNATNDD
Segmented circle: no

Nearby radio navigation aids

VOR radial/distance  VOR name  Freq  Var
GEFr188/9.0GREENVILLE VORTAC109.0001E
SZWr105/30.6SEMINOLE VORTAC117.5002E
OTKr232/35.5VALDOSTA VOR/DME114.8002W

 
NDB name  Hdg/Dist  Freq  Var  ID
PATON184/33.224505WGTP --. - .--.
CAIDY152/34.233804WCYR -.-. -.-- .-.

Airport Services

Runway Information

Runway 18/36

Dimensions: 3000 x 75 ft. / 914 x 23 m
Surface: turf
RUNWAY 18  RUNWAY 36
Traffic pattern: leftleft
Displaced threshold: no1500 ft.
Obstructions: 100 ft. trees, 3000 ft. from runway45 ft. trees, 1000 ft. from runway

Airport Ownership and Management from official FAA records

Ownership: Privately-owned
Owner: RED HILLS LAND COMPANY
12501 BONITA AVE
GLYNDON, MD 21071
Phone 410-833-1220
Manager: FRANKLIN FOSTER
12501 BONITA AVE
GLYNDON, MD 21071
Phone 410-960-2956

Additional Remarks

PPR FOR LNDG.

Instrument Procedures

There are no published instrument procedures at 4FL0.

Some nearby airports with instrument procedures:

40J - Perry-Foley Airport (23 nm SE)
4J5 - Quitman Brooks County Airport (27 nm NE)
KTLH - Tallahassee International Airport (28 nm W)
KTVI - Thomasville Regional Airport (30 nm N)
70J - Cairo-Grady County Airport (34 nm NW)
 
Loc | Ops | Rwys | IFR | FBO | Links
Com | Nav | Svcs | Stats | Notes


 
Area around 4FL0 (Turkey Scratch Plantation Airport)
 
Road maps at: MapQuest Bing Google
 
Aerial photo
No photo
 
Sectional chart

 
Airport distance calculator
Flying to Turkey Scratch Plantation Airport? Find the distance to fly.

From to 4FL0

Sunrise and sunset
Times for 11-Dec-2017
 Local
(UTC-5)
 Zulu
(UTC)
Morning civil twilight06:5711:57
Sunrise07:2312:23
Sunset17:3422:34
Evening civil twilight18:0123:01

Current date and time
Zulu (UTC)  11-Dec-2017 18:16:02
Local (UTC-5)  11-Dec-2017 13:16:02
 
METAR
K40J 
24nm SE 
111755Z AUTO 26005KT 10SM CLR 16/00 A3022 RMK AO2 T01610003 10163 21020
KTLH 
28nm W 
111753Z 00000KT 10SM FEW250 16/00 A3020 RMK AO2 SLP226 T01610000 10161 21033 58035
KTVI 
30nm N 
111755Z AUTO 26004KT 10SM CLR 16/01 A3020 RMK AO2
KVLD 
36nm NE 
111753Z VRB03KT 10SM CLR 16/02 A3019 RMK AO2 SLP232 T01560017 10161 21033 58033
K2J9 
40nm W 
111755Z AUTO 00000KT 10SM CLR 16/M00 A3021 RMK AO2
KMGR 
41nm N 
111755Z AUTO 23004KT 10SM CLR 15/02 A3019 RMK AO2
K24J 
41nm E 
111755Z AUTO 00000KT 10SM CLR 15/00 A3021 RMK A01
KVAD 
46nm NE 
111756Z AUTO 22003KT 10SM CLR 16/01 A3017 RMK AO2 SLP220 T01550009 10160 21015 57033 $
TAF
KTLH 
28nm W 
111720Z 1118/1218 VRB03KT P6SM SKC FM121500 30011G17KT P6SM SKC
NOTAMs
Click for the latest NOTAMs
NOTAMs are issued by the DoD/FAA and will open in a separate window not controlled by AirNav.

 

 
 

Would you like to see your business listed on this page?

 If your business provides an interesting product or service to pilots, flight crews, aircraft, or users of the Turkey Scratch Plantation Airport, you should consider listing it here.  To start the listing process, click on the button below
 
Add a business
 

Other Pages about Turkey Scratch Plantation Airport

Update a link
 
Copyright © AirNav, LLC. All rights reserved. Privacy Policy  Contact